DW2806 Weather Reports


Display with metric or nautical units.
time (UTC)temp
F
wind
direction
speed
MPH
gust
MPH
rain 1hr
in
rain 24hr
in
rain mn
in
humidity
%
barometer
mb
20260831133004 66 141 0.0 0.0 0.00 0.00 0.00 74 1025.7
20260831131503 65 139 0.0 0.0 0.00 0.00 0.00 81 1025.7
20260831130002 63 139 0.0 0.0 0.00 0.00 0.00 84 1025.7
20260831124604 62 139 0.0 0.0 0.00 0.00 0.00 89 1025.7
20260831123100 61 139 0.0 0.0 0.00 0.00 0.00 91 1025.7
20260831121558 61 139 0.0 2.0 0.00 0.00 0.00 93 1025.7
20260831120059 60 137 0.0 0.0 0.00 0.00 0.00 94 1025.7
20260831114555 59 137 0.0 0.0 0.00 0.00 0.00 93 1025.7
20260831113111 59 137 0.0 0.0 0.00 0.00 0.00 93 1025.7
20260831111552 59 137 0.0 0.0 0.00 0.00 0.00 93 1025.7
20260831110052 59 137 0.0 0.0 0.00 0.00 0.00 93 1025.7
20260831104550 59 137 0.0 0.0 0.00 0.00 0.00 93 1025.7
20260831103052 59 137 0.0 0.0 0.00 0.00 0.00 92 1025.7
20260831101550 59 137 0.0 0.0 0.00 0.00 0.00 92 1025.7
20260831100046 60 137 0.0 0.0 0.00 0.00 0.00 92 1025.7
20260831094555 60 137 0.0 0.0 0.00 0.00 0.00 92 1025.7
20260831093043 60 137 0.0 0.0 0.00 0.00 0.00 92 1025.7
20260831091547 61 137 0.0 0.0 0.00 0.00 0.00 92 1025.7
20260831090044 61 137 0.0 0.0 0.00 0.00 0.00 92 1025.7
20260831084537 61 137 0.0 0.0 0.00 0.00 0.00 91 1025.7
20260831083036 62 137 0.0 0.0 0.00 0.00 0.00 91 1025.7
20260831081534 62 137 0.0 0.0 0.00 0.00 0.00 91 1025.7
20260831080039 63 137 0.0 0.0 0.00 0.00 0.00 90 1025.7
20260831074529 63 137 0.0 0.0 0.00 0.00 0.00 90 1025.7
20260831073028 64 137 0.0 0.0 0.00 0.00 0.00 90 1025.7
20260831071527 64 137 0.0 0.0 0.00 0.00 0.00 89 1025.7
20260831070026 65 137 0.0 0.0 0.00 0.00 0.00 88 1025.7
20260831064521 65 137 0.0 0.0 0.00 0.00 0.00 88 1025.7
20260831063018 66 137 0.0 0.0 0.00 0.00 0.00 87 1025.7
20260831061516 67 137 0.0 0.0 0.00 0.00 0.00 86 1025.7
20260831060013 68 137 0.0 0.0 0.00 0.00 0.00 86 1025.7
20260831054512 68 137 0.0 0.0 0.00 0.00 0.00 85 1025.7
20260831053023 69 137 0.0 0.0 0.00 0.00 0.00 85 1025.7
20260831051509 69 137 0.0 0.0 0.00 0.00 0.00 85 1025.7
20260831050022 69 137 0.0 0.0 0.00 0.00 0.00 85 1025.7
20260831044505 70 137 0.0 0.0 0.00 0.00 0.00 85 1025.7
20260831043006 70 137 0.0 0.0 0.00 0.00 0.00 84 1025.7
20260831041502 71 137 0.0 0.0 0.00 0.00 0.00 84 1025.7
20260831040002 71 137 0.0 0.0 0.00 0.00 0.00 84 1025.7
20260831034559 71 137 0.0 0.0 0.00 0.00 0.00 85 1025.7
20260831033103 71 137 0.0 0.0 0.00 0.00 0.00 85 1025.7
20260831031559 71 137 0.0 0.0 0.00 0.00 0.00 87 1025.7
20260831030058 70 137 0.0 0.0 0.00 0.00 0.00 86 1025.7
20260831024601 71 137 0.0 0.0 0.00 0.00 0.00 86 1025.7
20260831023057 71 137 0.0 0.0 0.00 0.00 0.00 86 1025.7
20260831021557 71 137 0.0 0.0 0.00 0.00 0.00 85 1025.7
20260831020057 71 137 0.0 0.0 0.00 0.00 0.00 84 1025.7
20260831014555 72 137 0.0 0.0 0.00 0.00 0.00 83 1025.7
20260831013108 73 137 0.0 0.0 0.00 0.00 0.00 80 1025.7
20260831011557 73 137 0.0 0.0 0.00 0.00 0.00 77 1025.7
20260831010056 73 137 0.0 0.0 0.00 0.00 0.00 77 1025.7
20260831004553 73 137 0.0 0.0 0.00 0.00 0.00 76 1025.7
20260831003103 73 137 0.0 0.0 0.00 0.00 0.00 76 1025.7
20260831001552 73 137 0.0 0.0 0.00 0.00 0.00 74 1025.7
20260831000052 73 137 0.0 0.0 0.00 0.00 0.00 74 1025.7
20260830234554 74 137 0.0 0.0 0.00 0.00 0.00 71 1025.7
20260830233053 74 137 0.0 0.0 0.00 0.00 0.00 70 1025.7
20260830231550 75 137 0.0 0.0 0.00 0.00 0.00 70 1025.7
20260830230051 75 137 0.0 0.0 0.00 0.00 0.00 69 1025.7
20260830224549 75 137 0.0 0.0 0.00 0.00 0.00 70 1025.7
20260830223107 76 137 0.0 0.0 0.00 0.00 0.00 70 1025.7
20260830221550 76 137 0.0 0.0 0.00 0.00 0.00 70 1025.7
20260830220047 77 137 0.0 0.0 0.00 0.00 0.00 68 1025.7
20260830214553 77 137 0.0 0.0 0.00 0.00 0.00 67 1025.7
20260830213046 77 137 0.0 0.0 0.00 0.00 0.00 66 1025.7
20260830211546 78 137 0.0 0.0 0.00 0.00 0.00 67 1025.7
20260830210046 78 137 0.0 0.0 0.00 0.00 0.00 64 1025.7
20260830204554 78 137 0.0 0.0 0.00 0.00 0.00 64 1025.7
20260830203047 78 137 0.0 0.0 0.00 0.00 0.00 65 1025.7
20260830201545 78 137 0.0 0.0 0.00 0.00 0.00 63 1025.7
20260830200047 79 137 0.0 0.0 0.00 0.00 0.00 62 1025.7
20260830194543 79 150 0.0 1.0 0.00 0.00 0.00 61 1025.7
20260830193043 80 88 0.0 0.0 0.00 0.00 0.00 60 1025.7
20260830191541 81 88 0.0 1.0 0.00 0.00 0.00 60 1025.7
20260830190052 82 204 0.0 5.0 0.00 0.00 0.00 57 1025.7
20260830184539 81 277 0.0 0.0 0.00 0.00 0.00 61 1025.7
20260830183046 81 277 0.0 2.0 0.00 0.00 0.00 59 1025.7
20260830181537 80 276 0.0 1.0 0.00 0.00 0.00 62 1025.7
20260830180037 80 275 0.0 0.0 0.00 0.00 0.00 61 1025.7
20260830174543 80 275 0.0 0.0 0.00 0.00 0.00 62 1025.7
20260830173036 80 275 0.0 1.0 0.00 0.00 0.00 64 1025.7
20260830171533 80 24 0.0 0.0 0.00 0.00 0.00 61 1025.7
20260830170033 81 24 0.0 0.0 0.00 0.00 0.00 57 1025.7
20260830164530 82 343 0.0 5.0 0.00 0.00 0.00 57 1025.7
20260830163034 81 159 0.0 0.0 0.00 0.00 0.00 62 1025.7
20260830161527 82 59 0.0 0.0 0.00 0.00 0.00 61 1025.7
20260830160035 83 70 0.0 0.0 0.00 0.00 0.00 62 1025.7
20260830154521 81 146 0.0 0.0 0.00 0.00 0.00 63 1025.7
20260830153018 78 142 0.0 0.0 0.00 0.00 0.00 68 1025.7
20260830151516 78 142 0.0 0.0 0.00 0.00 0.00 67 1025.7
20260830150015 79 142 0.0 0.0 0.00 0.00 0.00 65 1025.7
20260830144512 78 142 0.0 0.0 0.00 0.00 0.00 64 1025.7
20260830143009 78 144 0.0 0.0 0.00 0.00 0.00 70 1025.7
20260830141506 76 144 0.0 0.0 0.00 0.00 0.00 71 1025.7
20260830140001 73 144 0.0 0.0 0.00 0.00 0.00 75 1025.7
20260830134559 72 144 0.0 0.0 0.00 0.00 0.00 79 1025.7